TimeMST,TemperatureF,Dew PointF,Humidity,Sea Level PressureIn,VisibilityMPH,Wind Direction,Wind SpeedMPH,Gust SpeedMPH,PrecipitationIn,Events,Conditions,WindDirDegrees,DateUTC
12:53 AM,33.1,23.0,66,30.33,10.0,Calm,Calm,-,N/A,,Scattered Clouds,0,2011-11-29 07:53:00
1:53 AM,33.1,23.0,66,30.35,10.0,Calm,Calm,-,N/A,,Overcast,0,2011-11-29 08:53:00
2:53 AM,33.1,23.0,66,30.32,10.0,ESE,4.6,-,N/A,,Overcast,120,2011-11-29 09:53:00
3:53 AM,33.1,24.1,70,30.33,10.0,SSE,4.6,-,N/A,,Overcast,160,2011-11-29 10:53:00
4:53 AM,34.0,24.1,67,30.36,10.0,SE,6.9,-,N/A,,Overcast,140,2011-11-29 11:53:00
5:53 AM,33.1,24.1,70,30.35,10.0,SSE,9.2,-,N/A,,Overcast,150,2011-11-29 12:53:00
6:53 AM,30.9,23.0,72,30.36,10.0,SSE,12.7,-,N/A,,Scattered Clouds,160,2011-11-29 13:53:00
7:53 AM,30.9,24.1,76,30.39,10.0,SSE,11.5,-,N/A,,Scattered Clouds,160,2011-11-29 14:53:00
8:53 AM,36.0,24.1,62,30.37,10.0,South,13.8,-,N/A,,Clear,170,2011-11-29 15:53:00
9:53 AM,42.1,23.0,47,30.33,10.0,South,13.8,-,N/A,,Clear,180,2011-11-29 16:53:00
10:53 AM,46.9,24.1,41,30.28,10.0,SSW,16.1,-,N/A,,Clear,200,2011-11-29 17:53:00
11:53 AM,52.0,24.1,34,30.22,10.0,WSW,15.0,-,N/A,,Clear,240,2011-11-29 18:53:00
12:53 PM,53.1,23.0,31,30.21,10.0,WNW,8.1,-,N/A,,Clear,300,2011-11-29 19:53:00
1:53 PM,53.1,23.0,31,30.20,10.0,NNW,6.9,-,N/A,,Clear,330,2011-11-29 20:53:00
2:53 PM,52.0,24.1,34,30.20,10.0,WNW,9.2,-,N/A,,Clear,300,2011-11-29 21:53:00
3:53 PM,50.0,24.1,36,30.19,10.0,Calm,Calm,-,N/A,,Clear,0,2011-11-29 22:53:00
4:53 PM,44.1,24.1,45,30.20,10.0,SSE,3.5,-,N/A,,Clear,160,2011-11-29 23:53:00
5:53 PM,37.9,21.9,53,30.21,10.0,SSW,6.9,-,N/A,,Clear,210,2011-11-30 00:53:00
7:53 PM,37.0,21.9,54,30.19,10.0,SSW,8.1,-,N/A,,Clear,200,2011-11-30 02:53:00
8:53 PM,33.1,21.0,61,30.19,10.0,SW,5.8,-,N/A,,Clear,220,2011-11-30 03:53:00
9:53 PM,37.0,21.9,54,30.13,10.0,SW,11.5,-,N/A,,Clear,220,2011-11-30 04:53:00
11:53 PM,37.9,21.0,51,30.04,10.0,SSW,11.5,-,N/A,,Clear,200,2011-11-30 06:53:00